Weather History for Washington, GA

Change the Weather History Date:

Thursday, January 31, 2013

  Actual Average (KDBN) Record (KDBN)
Temperature  
Mean Temperature 44 °F -  
Max Temperature 51 °F 59 °F 82 °F (1975)
Min Temperature 37 °F 34 °F 9 °F (1966)
Degree Days  
Heating Degree Days 21    
Moisture  
Dew Point 24 °F    
Average Humidity 49    
Maximum Humidity 93    
Minimum Humidity 24    
Precipitation  
Precipitation 0.00 in - - ()
Sea Level Pressure  
Sea Level Pressure 30.01 in    
Wind  
Wind Speed 14 mph (West)    
Max Wind Speed 23 mph    
Max Gust Speed 32 mph    
Visibility 10 miles    
Events Rain    
Averages and records for this station are not official NWS values.
T = Trace of Precipitation, MM = Missing Value Source: NWS Daily Summary

Daily Weather History Graph

Daily Weather History Graph

Search for Another Location

Airport:

Trip Planner

Search our weather history database for the weather conditions in past years. The results will help you decide how hot, cold, wet, or windy it might be!

Date:

Astronomy

Jan. 31, 2013 Rise Set
Actual Time 7:28 AM EST 6:01 PM EST
Civil Twilight 7:02 AM EST 6:27 PM EST
Nautical Twilight 6:32 AM EST 6:57 PM EST
Astronomical Twilight 6:02 AM EST 7:27 PM EST
Moon 10:44 PM EST (1/31) 9:43 AM EST (1/31)
Length of Visible Light 11h 25m
Length of Day
10h 33m
Waning Gibbous, 80% of the Moon is Illuminated
Jan 31
Waning Gibbous
Feb 3
Last Quarter
Feb 10
New
Feb 17
First Quarter
Feb 25
Full

Hourly Weather History & Observations

Time (EST) Temp. Windchill Dew Point Humidity Pressure Visibility Wind Dir Wind Speed Gust Speed Precip Events Conditions
12:15 AM 48.2 °F - 46.4 °F 93% 29.73 in 10.0 mi WSW 13.8 mph 18.4 mph N/A   Scattered Clouds
12:35 AM 48.2 °F - 44.6 °F 87% 29.75 in 7.0 mi West 21.9 mph 31.1 mph N/A Rain Rain
12:55 AM 46.4 °F 39.0 °F 41.0 °F 81% 29.76 in 10.0 mi West 19.6 mph 29.9 mph N/A   Scattered Clouds
1:15 AM 46.4 °F 40.4 °F 41.0 °F 81% 29.78 in 10.0 mi West 13.8 mph 21.9 mph N/A   Scattered Clouds
1:35 AM 46.4 °F 41.1 °F 41.0 °F 81% 29.80 in 10.0 mi West 11.5 mph 17.3 mph N/A   Mostly Cloudy
1:55 AM 44.6 °F 36.1 °F 33.8 °F 66% 29.81 in 10.0 mi West 21.9 mph 31.1 mph N/A   Mostly Cloudy
2:15 AM 42.8 °F 35.1 °F 32.0 °F 66% 29.83 in 10.0 mi West 16.1 mph 27.6 mph N/A   Scattered Clouds
2:35 AM 42.8 °F 35.8 °F 32.0 °F 66% 29.84 in 10.0 mi West 13.8 mph 24.2 mph N/A   Scattered Clouds
2:55 AM 42.8 °F 35.8 °F 32.0 °F 66% 29.85 in 10.0 mi West 13.8 mph 20.7 mph N/A   Scattered Clouds
3:15 AM 42.8 °F 36.6 °F 32.0 °F 66% 29.86 in 10.0 mi West 11.5 mph - N/A   Scattered Clouds
3:35 AM 42.8 °F 34.5 °F 30.2 °F 61% 29.87 in 10.0 mi West 18.4 mph 31.1 mph N/A   Scattered Clouds
3:55 AM 41.0 °F 32.5 °F 28.4 °F 61% 29.88 in 10.0 mi West 17.3 mph 25.3 mph N/A   Clear
4:15 AM 41.0 °F 31.1 °F 26.6 °F 57% 29.89 in 10.0 mi WNW 23.0 mph 32.2 mph N/A   Clear
4:35 AM 41.0 °F 32.5 °F 24.8 °F 53% 29.90 in 10.0 mi West 17.3 mph 31.1 mph N/A   Clear
4:55 AM 37.4 °F 28.5 °F 23.0 °F 56% 29.90 in 10.0 mi West 15.0 mph 25.3 mph N/A   Clear
5:15 AM 37.4 °F 29.3 °F 23.0 °F 56% 29.90 in 10.0 mi West 12.7 mph 25.3 mph N/A   Clear
5:35 AM 37.4 °F 28.5 °F 23.0 °F 56% 29.92 in 10.0 mi WNW 15.0 mph 25.3 mph N/A   Clear
5:55 AM 37.4 °F 29.8 °F 24.8 °F 60% 29.94 in 10.0 mi West 11.5 mph 17.3 mph N/A   Clear
6:15 AM 37.4 °F 29.8 °F 24.8 °F 60% 29.95 in 10.0 mi West 11.5 mph 18.4 mph N/A   Clear
6:35 AM 37.4 °F 30.8 °F 24.8 °F 60% 29.97 in 10.0 mi West 9.2 mph 18.4 mph N/A   Clear
6:55 AM 37.4 °F 30.3 °F 26.6 °F 65% 29.96 in 10.0 mi West 10.4 mph - N/A   Clear
7:15 AM 37.4 °F 30.8 °F 26.6 °F 65% 29.97 in 10.0 mi West 9.2 mph 16.1 mph N/A   Clear
7:55 AM 37.4 °F 30.3 °F 24.8 °F 60% 29.99 in 10.0 mi WNW 10.4 mph 16.1 mph N/A   Clear
8:15 AM 37.4 °F 29.8 °F 23.0 °F 56% 30.01 in 10.0 mi West 11.5 mph 19.6 mph N/A   Clear
8:35 AM 37.4 °F 29.3 °F 23.0 °F 56% 30.01 in 10.0 mi West 12.7 mph 20.7 mph N/A   Clear
8:55 AM 39.2 °F 32.5 °F 23.0 °F 52% 30.02 in 10.0 mi WNW 10.4 mph 19.6 mph N/A   Clear
9:15 AM 41.0 °F 31.4 °F 23.0 °F 49% 30.03 in 10.0 mi WNW 21.9 mph 31.1 mph N/A   Clear
9:35 AM 41.0 °F 32.8 °F 21.2 °F 45% 30.04 in 10.0 mi WNW 16.1 mph 23.0 mph N/A   Clear
9:55 AM 42.8 °F 35.4 °F 23.0 °F 46% 30.04 in 10.0 mi WNW 15.0 mph 19.6 mph N/A   Clear
10:15 AM 42.8 °F 34.8 °F 23.0 °F 46% 30.05 in 10.0 mi West 17.3 mph 21.9 mph N/A   Clear
10:35 AM 42.8 °F 35.4 °F 24.8 °F 49% 30.05 in 10.0 mi West 15.0 mph 24.2 mph N/A   Clear
10:55 AM 42.8 °F 36.2 °F 23.0 °F 46% 30.05 in 10.0 mi WNW 12.7 mph 20.7 mph N/A   Clear
11:15 AM 44.6 °F 37.8 °F 23.0 °F 43% 30.06 in 10.0 mi West 15.0 mph 21.9 mph N/A   Clear
11:35 AM 44.6 °F 38.4 °F 21.2 °F 39% 30.06 in 10.0 mi West 12.7 mph 19.6 mph N/A   Clear
11:55 AM 46.4 °F 39.8 °F 19.4 °F 34% 30.06 in 10.0 mi West 16.1 mph 21.9 mph N/A   Clear
12:15 PM 46.4 °F 39.5 °F 17.6 °F 32% 30.05 in 10.0 mi West 17.3 mph 24.2 mph N/A   Clear
12:35 PM 46.4 °F 39.0 °F 19.4 °F 34% 30.06 in 10.0 mi West 19.6 mph 24.2 mph N/A   Clear
12:55 PM 46.4 °F 39.8 °F 15.8 °F 29% 30.06 in 10.0 mi WNW 16.1 mph 29.9 mph N/A   Clear
1:15 PM 50.0 °F - 17.6 °F 28% 30.05 in 10.0 mi WNW 18.4 mph 27.6 mph N/A   Clear
1:35 PM 48.2 °F - 14.0 °F 25% 30.05 in 10.0 mi West 19.6 mph 29.9 mph N/A   Clear
1:55 PM 51.8 °F - 17.6 °F 26% 30.05 in 10.0 mi West 16.1 mph 27.6 mph N/A   Clear
2:15 PM 51.8 °F - 15.8 °F 24% 30.06 in 10.0 mi West 18.4 mph 25.3 mph N/A   Clear
2:35 PM 51.8 °F - 15.8 °F 24% 30.06 in 10.0 mi WNW 20.7 mph 28.8 mph N/A   Clear
2:55 PM 51.8 °F - 15.8 °F 24% 30.06 in 10.0 mi WNW 19.6 mph 31.1 mph N/A   Clear
3:15 PM 51.8 °F - 17.6 °F 26% 30.06 in 10.0 mi West 19.6 mph 26.5 mph N/A   Clear
3:35 PM 51.8 °F - 17.6 °F 26% 30.07 in 10.0 mi West 18.4 mph 26.5 mph N/A   Clear
3:55 PM 51.8 °F - 17.6 °F 26% 30.07 in 10.0 mi NW 17.3 mph 28.8 mph N/A   Clear
4:15 PM 51.8 °F - 17.6 °F 26% 30.07 in 10.0 mi WNW 17.3 mph 25.3 mph N/A   Clear
4:35 PM 51.8 °F - 19.4 °F 28% 30.07 in 10.0 mi WNW 12.7 mph 21.9 mph N/A   Clear
4:55 PM 50.0 °F - 17.6 °F 28% 30.08 in 10.0 mi WNW 13.8 mph 23.0 mph N/A   Clear
5:15 PM 48.2 °F - 17.6 °F 30% 30.08 in 10.0 mi WNW 11.5 mph 21.9 mph N/A   Clear
5:35 PM 46.4 °F 41.1 °F 17.6 °F 32% 30.08 in 10.0 mi West 11.5 mph 17.3 mph N/A   Clear
5:55 PM 46.4 °F 41.5 °F 17.6 °F 32% 30.09 in 10.0 mi West 10.4 mph 16.1 mph N/A   Clear
6:15 PM 44.6 °F 41.4 °F 21.2 °F 39% 30.09 in 10.0 mi West 5.8 mph - N/A   Clear
6:35 PM 42.8 °F 40.1 °F 23.0 °F 46% 30.09 in 10.0 mi SW 4.6 mph - N/A   Clear
6:55 PM 41.0 °F 38.0 °F 23.0 °F 49% 30.10 in 10.0 mi WSW 4.6 mph - N/A   Clear
7:15 PM 41.0 °F 37.1 °F 24.8 °F 53% 30.11 in 10.0 mi SW 5.8 mph - N/A   Clear
7:35 PM 41.0 °F 37.1 °F 24.8 °F 53% 30.11 in 10.0 mi WSW 5.8 mph - N/A   Clear
7:55 PM 41.0 °F 37.1 °F 24.8 °F 53% 30.12 in 10.0 mi WSW 5.8 mph - N/A   Clear
8:15 PM 41.0 °F 37.1 °F 23.0 °F 49% 30.12 in 10.0 mi WSW 5.8 mph - N/A   Clear
8:35 PM 41.0 °F 36.4 °F 23.0 °F 49% 30.12 in 10.0 mi WSW 6.9 mph - N/A   Clear
8:55 PM 41.0 °F 36.4 °F 23.0 °F 49% 30.13 in 10.0 mi West 6.9 mph - N/A   Clear
9:15 PM 41.0 °F 35.8 °F 23.0 °F 49% 30.13 in 10.0 mi WSW 8.1 mph - N/A   Clear
9:35 PM 41.0 °F 37.1 °F 23.0 °F 49% 30.14 in 10.0 mi WSW 5.8 mph - N/A   Clear
9:55 PM 41.0 °F 37.1 °F 23.0 °F 49% 30.15 in 10.0 mi WSW 5.8 mph - N/A   Clear
10:15 PM 39.2 °F 35.0 °F 23.0 °F 52% 30.15 in 10.0 mi WSW 5.8 mph - N/A   Clear
10:35 PM 37.4 °F 32.8 °F 23.0 °F 56% 30.15 in 10.0 mi WSW 5.8 mph - N/A   Clear
10:55 PM 37.4 °F 32.8 °F 23.0 °F 56% 30.15 in 10.0 mi WSW 5.8 mph - N/A   Clear
11:15 PM 37.4 °F 33.8 °F 24.8 °F 60% 30.16 in 10.0 mi SW 4.6 mph - N/A   Clear
11:35 PM 37.4 °F 32.8 °F 24.8 °F 60% 30.15 in 10.0 mi WSW 5.8 mph - N/A   Clear